Location: Bodest
(46.3000°N, 22.5667°E)
Time: 01:39:40
(UTC+00:00)

Cosmos 724 - Pass Details

Date: 16 October 2021
Orbit: 857 x 937 km, 65.6° (Epoch: 02 December)

Event Time Altitude Azimuth Distance (km) Brightness Sun altitude
Rises 17:33:02 0° 325° (NW) 3,539 8.1 -20.0°
Reaches altitude 10° 17:35:35 10° 327° (NNW) 2,582 7.3 -20.4°
Maximum altitude 17:41:35 78° 53° (NE) 910 4.2 -21.5°
Enters shadow 17:43:51 39° 133° (SE) 1,287 4.7 -21.9°
